[[{"header":{"parameterUnit":"m.s-1","parameterCategory":1,"la1":30.2991,"la2":30.254,"lo1":-89.0895,"lo2":-89.0444,"dy":0.0017,"dx":0.0017,"nx":28,"ny":28,"refTime":"2025-03-31T21:00:00:Z","depth":0,"parameterNumber":2,"parameterNumberName":"U-component_of_WINDS"},"data":[0,0,0,0,0,0,0,0,0,0,0,0,0,0,0,0,0,0,0,0,0,0,0,0,0,0,0,0,0,0,0,0,0,0,0,0,0,0,0,0,0,0,0,0,0,0,0,0,0,0,0,0,0,0,0,0,0,0,-3.9772,-3.9773,0,-3.9934,-3.9936,-3.9938,-3.9966,-3.9964,-3.9963,-3.9962,-4.0132,-4.0137,-4.0143,0,0,0,0,0,0,0,0,0,0,0,0,0,-3.949,-3.9495,-3.9772,-3.9774,-3.9776,-3.9934,-3.9936,-3.9939,-3.9966,-3.9964,-3.9963,-3.9961,-4.013,-4.0137,-4.0144,0,0,0,0,0,0,0,0,0,0,0,0,0,-3.9628,-3.9496,-3.9771,-3.9808,-3.9813,-3.9934,-3.9936,-3.9939,-3.9966,-3.9964,-3.9962,-3.996,-4.0128,-4.0136,-4.0145,-4.0241,0,0,-4.0171,-4.0175,0,0,0,0,0,0,0,0,-3.962,-3.9639,-3.9801,-3.9806,-3.9812,-3.9928,-3.9899,-4.004,-3.9967,-3.9908,-3.9962,-3.9959,-4.0066,-4.0079,-4.0115,-4.0249,-4.0256,-4.0172,-4.0178,-4.0181,-4.0184,0,0,0,0,0,0,0,-3.9611,-3.9632,-3.9836,-3.9803,-3.981,-3.9819,-3.9836,-3.9926,-3.9997,-3.9913,-3.9916,-3.9934,-4.0068,-4.0106,-4.0119,-4.0258,-4.0172,-4.018,-4.0185,-4.0189,-4.0481,-4.0483,0,0,0,0,0,0,-3.9594,-3.9624,-3.9831,-3.9841,-3.9709,-3.9825,-3.9845,-3.9893,-3.9996,-4.001,-3.9936,-3.9935,-4.0092,-4.0109,-4.0125,-4.0245,-4.0181,-4.0189,-4.0194,-4.0478,-4.0482,-4.0484,0,0,0,0,0,0,-3.9588,-3.9612,-3.9824,-3.9733,-3.9761,-3.9832,-3.9886,-3.9897,-3.9935,-4.0013,-4.0026,-3.9961,-4.0091,-4.0113,-4.0212,-4.0251,-4.0193,-4.0201,-4.0476,-4.0479,-4.0483,-4.0484,0,0,0,0,0,0,-3.9579,-3.961,-3.9645,-3.9734,-3.9765,-3.9907,-3.9888,-3.9902,-3.9949,-3.9949,-4.004,-4.0053,-4.0091,-4.0199,-4.022,-4.0262,-4.0208,-4.0472,-4.0477,-4.0482,-4.048,-4.0487,-4.0493,0,0,0,0,0,-3.9569,-3.964,-3.9647,-3.9672,-3.9811,-3.9909,-3.9927,-3.9968,-3.9952,-3.999,-4.004,-4.005,-4.0243,-4.0208,-4.0233,-4.0278,-4.047,-4.0476,-4.0481,-4.0478,-4.0486,-4.0492,0,0,0,0,0,0,-3.9555,-3.9652,-3.9661,-3.9762,-3.9827,-3.9913,-3.9961,-3.9975,-4.0047,-4.0045,-4.0094,-4.0115,-4.0211,-4.0255,-4.0214,-4.0377,-4.0356,-4.0367,-4.0344,-4.0353,-4.0359,-4.0346,-4.0215,0,0,0,0,0,-3.9563,-3.9633,-3.9715,-3.9796,-3.9828,-3.9889,-3.9933,-3.9959,-4.0029,-4.0057,-4.0115,-4.0184,-4.026,-4.0309,-4.0383,-4.0488,-4.0509,-4.0531,-4.0537,-4.0542,-4.055,-4.061,-4.0621,-4.0503,-4.0503,-4.0503,0,0,-3.9582,-3.9643,-3.9684,-3.9794,-3.9848,-3.992,-3.9912,-3.9989,-4.0044,-4.0069,-4.0166,-4.0211,-4.0291,-4.0393,-4.0441,-4.0433,-4.0588,-4.0549,-4.0552,-4.0558,-4.0617,-4.0628,-4.0638,-4.0507,-4.0506,-4.0505,0,0,-3.9652,-3.9705,-3.9779,-3.9833,-3.9914,-3.9954,-3.9972,-4.0057,-4.0088,-4.0186,-4.0207,-4.0274,-4.0404,-4.046,-4.0506,-4.06,-4.0612,-4.0623,-4.0654,-4.0712,-4.0721,-4.073,-4.0763,-4.0775,-4.0632,-4.0632,-4.0632,0,-3.9665,-3.9773,-3.9815,-3.9892,-3.994,-3.9966,-4.0042,-4.0093,-4.0195,-4.0228,-4.0217,-4.0382,-4.0437,-4.0554,-4.0576,-4.0613,-4.0636,-4.0612,-4.0716,-4.0725,-4.0734,-4.0766,-4.0779,-4.0632,-4.0632,-4.0632,-4.0632,0,-3.9785,-3.986,-3.9911,-4.0007,-4.0061,-4.0137,-4.0192,-4.0243,-4.0265,-4.0307,-4.0408,-4.0476,-4.0565,-4.0595,-4.0618,-4.0715,-4.0707,-4.0706,-4.0685,-4.0745,-4.0776,-4.0789,-4.0633,-4.0633,-4.0633,-4.0633,0,0,-3.9849,-3.9969,-3.9986,-4.0031,-4.0123,-4.0183,-4.0261,-4.0347,-4.039,-4.046,-4.0527,-4.0638,-4.0637,-4.0689,-4.0719,-4.0769,-4.084,-4.0762,-4.0765,-4.0774,-4.0953,-4.0952,-4.0966,-4.0849,-4.0852,-4.0854,-4.0946,0,-3.993,-4.0067,-4.0109,-4.0225,-4.0296,-4.0323,-4.0392,-4.0456,-4.0499,-4.0567,-4.0614,-4.0691,-4.0685,-4.0716,-4.0768,-4.082,-4.0876,-4.0815,-4.0914,-4.0916,-4.0891,-4.0983,-4.0983,-4.1066,-4.0958,-4.0961,-4.0962,0,-4.0042,-4.0113,-4.0236,-4.032,-4.0351,-4.0411,-4.0495,-4.0559,-4.0634,-4.0661,-4.072,-4.0746,-4.0831,-4.0806,-4.0924,-4.0881,-4.0925,-4.0957,-4.0961,-4.0971,-4.0942,-4.0995,-4.1093,-4.1105,-4.0982,-4.098,-4.0979,0,-4.0076,-4.0203,-4.0293,-4.033,-4.0431,-4.0472,-4.0517,-4.059,-4.0639,-4.0713,-4.0746,-4.0829,-4.0874,-4.0939,-4.0987,-4.0965,-4.1101,-4.1081,-4.1127,-4.1126,-4.1154,-4.1151,-4.1259,-4.1183,-4.1183,-4.1182,-4.1182,0,-4.0161,-4.0235,-4.0309,-4.0364,-4.0449,-4.0497,-4.058,-4.0626,-4.0691,-4.0758,-4.0787,-4.0849,-4.091,-4.098,-4.1019,-4.1111,-4.1132,-4.1157,-4.1166,-4.1154,-4.1151,-4.1182,-4.1178,-4.1186,-4.1185,-4.1184,-4.1184,0,-4.0213,-4.0265,-4.0365,-4.0452,-4.0476,-4.0535,-4.061,-4.0666,-4.071,-4.0794,-4.0816,-4.0886,-4.0971,-4.1026,-4.1134,-4.1161,-4.1261,-4.1269,-4.1235,-4.1239,-4.1283,-4.1277,-4.1415,-4.1435,-4.1345,-4.1346,-4.1346,0,-4.0263,-4.0321,-4.0414,-4.046,-4.0504,-4.0577,-4.0628,-4.0679,-4.0731,-4.0822,-4.0867,-4.0953,-4.1025,-4.116,-4.1221,-4.1305,-4.1315,-4.1357,-4.1327,-4.1313,-4.1315,-4.1311,-4.1317,-4.1361,-4.1362,-4.1363,-4.1363,0,-4.0347,-4.0371,-4.0442,-4.0522,-4.0582,-4.0648,-4.0715,-4.0751,-4.0814,-4.0871,-4.0958,-4.1013,-4.1124,-4.121,-4.1299,-4.1347,-4.1366,-4.1372,-4.1388,-4.1375,-4.1352,-4.1365,-4.1247,-4.1369,-4.1368,-4.1368,-4.1367,-4.1367,-4.04,-4.0453,-4.0526,-4.0605,-4.0661,-4.0723,-4.0779,-4.0831,-4.0903,-4.0996,-4.1022,-4.1112,-4.1189,-4.131,-4.136,-4.1433,-4.1428,-4.145,-4.1455,-4.146,-4.146,-4.1341,-4.1449,-4.1449,-4.1449,-4.1449,-4.1449,0,-4.0485,-4.0534,-4.0606,-4.0698,-4.0761,-4.0773,-4.0848,-4.0899,-4.0978,-4.1047,-4.1116,-4.1217,-4.1301,-4.1369,-4.1456,-4.1501,-4.1512,-4.1522,-4.1519,-4.153,-4.1459,-4.1437,-4.1512,-4.1512,-4.1512,-4.1512,-4.1512,-4.1512,-4.0537,-4.0627,-4.0659,-4.0778,-4.0827,-4.0915,-4.0956,-4.1015,-4.1069,-4.1179,-4.1249,-4.1292,-4.1362,-4.1454,-4.1533,-4.1551,-4.1582,-4.159,-4.161,-4.1542,-4.1535,-4.1528,-4.1508,-4.1596,-4.1596,-4.1675,-4.1675,-4.1676]},{"header":{"parameterUnit":"m.s-1","parameterCategory":1,"la1":30.2991,"la2":30.254,"lo1":-89.0895,"lo2":-89.0444,"dy":0.0017,"dx":0.0017,"nx":28,"ny":28,"refTime":"2025-03-31T21:00:00:Z","depth":0,"parameterNumber":3,"parameterNumberName":"V-component_of_WINDS"},"data":[0,0,0,0,0,0,0,0,0,0,0,0,0,0,0,0,0,0,0,0,0,0,0,0,0,0,0,0,0,0,0,0,0,0,0,0,0,0,0,0,0,0,0,0,0,0,0,0,0,0,0,0,0,0,0,0,0,0,5.9702,5.9702,0,5.9756,5.9756,5.9757,5.9725,5.9723,5.9722,5.9721,5.9772,5.9774,5.9777,0,0,0,0,0,0,0,0,0,0,0,0,0,5.9569,5.9572,5.9702,5.9703,5.9703,5.9756,5.9756,5.9757,5.9725,5.9723,5.9722,5.972,5.9771,5.9774,5.9777,0,0,0,0,0,0,0,0,0,0,0,0,0,5.9625,5.9572,5.9702,5.9694,5.9694,5.9756,5.9756,5.9757,5.9726,5.9723,5.9721,5.9719,5.977,5.9774,5.9778,5.9849,0,0,5.979,5.9792,0,0,0,0,0,0,0,0,5.9622,5.963,5.9694,5.9694,5.9694,5.9731,5.9728,5.9788,5.9726,5.9713,5.972,5.9718,5.976,5.9765,5.978,5.9852,5.9854,5.9791,5.9793,5.9795,5.9796,0,0,0,0,0,0,0,5.9618,5.9627,5.9723,5.9695,5.9695,5.9687,5.9692,5.9739,5.9749,5.9714,5.9712,5.9719,5.9759,5.9776,5.9781,5.9855,5.9791,5.9794,5.9797,5.9799,5.999,5.9993,0,0,0,0,0,0,5.9615,5.9624,5.9721,5.9725,5.9652,5.9691,5.9697,5.9722,5.9748,5.975,5.9721,5.9717,5.977,5.9776,5.9782,5.9869,5.9795,5.9799,5.9801,5.9988,5.9991,5.9994,0,0,0,0,0,0,5.9612,5.9624,5.9719,5.9674,5.9685,5.9696,5.9724,5.9724,5.974,5.9753,5.9754,5.9736,5.9768,5.9776,5.9834,5.987,5.9801,5.9805,5.9985,5.9989,5.9992,6.0043,0,0,0,0,0,0,5.9609,5.9623,5.9651,5.9675,5.9688,5.977,5.9726,5.9727,5.9748,5.9744,5.9768,5.9769,5.9767,5.9828,5.9838,5.9875,5.9808,5.9981,5.9986,5.9991,6.0038,6.0048,6.0057,0,0,0,0,0,5.9604,5.9662,5.9653,5.9664,5.9723,5.9773,5.978,5.9777,5.9751,5.9779,5.9788,5.9769,5.9865,5.9834,5.9845,5.9884,5.9979,5.9985,5.9991,6.0034,6.0046,6.0056,0,0,0,0,0,0,5.9639,5.9665,5.9655,5.9722,5.9746,5.9767,5.9802,5.979,5.982,5.9815,5.9809,5.9814,5.9875,5.9885,5.985,5.9956,5.9918,5.9926,5.9947,5.9958,5.9968,5.9964,5.9811,0,0,0,0,0,5.9656,5.9695,5.9714,5.9771,5.9784,5.9791,5.9813,5.9809,5.9832,5.9842,5.9854,5.9877,5.9913,5.9936,5.9969,6.0039,6.0045,6.0072,6.0081,6.0089,6.0096,6.0135,6.0148,6.0013,6.0013,6.0013,0,0,5.9688,5.9707,5.9731,5.9779,5.9797,5.9838,5.98,5.9843,5.9873,5.9848,5.9904,5.9914,5.9939,6.0004,6.0033,6.0014,6.0135,6.0096,6.0102,6.0105,6.0143,6.0156,6.0167,6.0017,6.0016,6.0015,0,0,5.9769,5.9787,5.9837,5.9857,5.9886,5.989,5.9903,5.9927,5.9933,5.999,5.9972,6.0007,6.0068,6.0087,6.0105,6.0196,6.018,6.0207,6.0255,6.0294,6.0305,6.0314,6.0348,6.0359,6.0214,6.0214,6.0214,0,5.9805,5.9867,5.9864,5.9911,5.9933,5.9914,5.9966,5.9984,6.0021,6.0037,6.0016,6.0094,6.0109,6.0179,6.0201,6.0216,6.023,6.0204,6.0304,6.0313,6.0322,6.0354,6.0366,6.0217,6.0217,6.0217,6.0216,0,5.9911,5.9954,5.9991,6.003,6.0056,6.0105,6.011,6.0136,6.0131,6.0138,6.0196,6.0214,6.0252,6.0268,6.0262,6.0338,6.0326,6.0304,6.0266,6.0338,6.0368,6.038,6.0222,6.0221,6.022,6.0219,0,0,6.0013,6.0053,6.0067,6.0086,6.0117,6.015,6.0198,6.0236,6.026,6.0286,6.0327,6.038,6.0362,6.0382,6.0378,6.0412,6.0485,6.0387,6.0387,6.0405,6.057,6.0587,6.0601,6.0475,6.0477,6.0479,6.0569,0,6.0097,6.0182,6.0183,6.0262,6.0302,6.0286,6.0328,6.0352,6.036,6.0395,6.0403,6.0442,6.0414,6.0426,6.0459,6.0469,6.0518,6.0462,6.0512,6.0514,6.0506,6.0616,6.0633,6.0717,6.058,6.0582,6.0584,0,6.0205,6.0238,6.0321,6.0349,6.0366,6.0404,6.0441,6.0474,6.0501,6.0505,6.0529,6.0521,6.057,6.0531,6.0598,6.0561,6.0581,6.0589,6.0592,6.0597,6.0553,6.0624,6.0744,6.0756,6.0602,6.06,6.0599,0,6.0273,6.0338,6.0397,6.0413,6.0447,6.0474,6.0489,6.0514,6.0538,6.0569,6.0585,6.0621,6.0641,6.067,6.0671,6.0643,6.074,6.0701,6.0744,6.0745,6.0765,6.0764,6.089,6.0778,6.0778,6.0778,6.0777,0,6.0366,6.0417,6.0428,6.0464,6.0522,6.0523,6.058,6.0592,6.0615,6.0653,6.0641,6.0677,6.0677,6.0713,6.0715,6.0771,6.078,6.0784,6.0784,6.0786,6.0785,6.0799,6.0793,6.0781,6.078,6.0779,6.0779,0,6.0451,6.046,6.0524,6.0552,6.056,6.0601,6.0625,6.0659,6.0667,6.0716,6.0727,6.074,6.0782,6.0787,6.0836,6.0837,6.0906,6.0899,6.0897,6.0896,6.094,6.0936,6.108,6.1099,6.0974,6.0975,6.0976,0,6.051,6.055,6.0583,6.0609,6.0626,6.0667,6.0693,6.0695,6.0721,6.0757,6.0787,6.0829,6.0863,6.0932,6.0944,6.0982,6.0976,6.1024,6.0982,6.0983,6.0978,6.0976,6.0981,6.1032,6.1034,6.1035,6.1036,0,6.0614,6.0618,6.0655,6.0696,6.0727,6.0758,6.0787,6.0809,6.0815,6.0845,6.089,6.0916,6.0968,6.101,6.1048,6.1062,6.1051,6.1049,6.1062,6.1064,6.1061,6.1064,6.092,6.1046,6.1045,6.1044,6.1043,6.1043,6.0689,6.0724,6.0754,6.0797,6.082,6.0848,6.0883,6.0897,6.0935,6.0978,6.0977,6.1026,6.1053,6.1103,6.1121,6.1159,6.1143,6.1161,6.1165,6.117,6.1175,6.1056,6.1166,6.1166,6.1166,6.1165,6.1165,0,6.0793,6.0812,6.0852,6.0895,6.0929,6.0917,6.0949,6.0978,6.1023,6.105,6.1084,6.1136,6.1177,6.1195,6.1235,6.1263,6.1258,6.1273,6.1271,6.1275,6.1186,6.1172,6.1276,6.1276,6.1276,6.1276,6.1276,6.1276,6.0851,6.0912,6.0919,6.0991,6.1009,6.1059,6.1079,6.1105,6.1127,6.1187,6.1222,6.1233,6.1257,6.1299,6.1337,6.1341,6.1356,6.1374,6.1375,6.1292,6.1281,6.127,6.1257,6.1377,6.1377,6.1461,6.1462,6.1462]}]]